Wind_Speed
7 7 7 7 7 7 8 8 8 9 9 10 11 11 11 12 12 12 12 12 12 12 12 12 12 12 12 12 13 13 13 13 13 13 14 13 13 14 14 14 13 13 13
7 8 9 8 8 8 9 9 9 10 10 11 12 12 13 14 14 14 14 14 14 13 13 13 13 13 14 14 14 14 14 14 15 15 15 15 15 14 14 15 14 14 14
9 9 9 8 9 9 9 10 10 11 11 12 12 13 14 14 15 15 15 15 15 15 15 14 14 15 15 15 15 15 15 16 16 16 16 15 16 16 16 16 16 16 15
9 9 8 9 9 10 11 11 11 12 13 13 13 14 15 15 15 16 16 16 16 16 15 16 16 16 16 16 16 16 16 16 17 17 17 17 17 17 17 17 17 17 17
10 10 10 9 10 10 12 12 13 13 14 14 15 15 16 16 17 17 17 17 18 17 17 17 17 17 17 17 17 18 17 17 17 17 17 18 18 19 19 19 19 19 19
11 11 11 10 11 12 13 14 14 14 15 15 15 16 17 17 17 18 19 19 19 19 19 19 19 18 18 18 18 19 19 19 19 18 18 19 20 20 20 20 21 20 20
13 12 12 11 12 13 13 13 13 14 15 15 16 16 17 17 18 19 20 20 20 20 20 20 20 20 20 19 19 20 20 20 20 20 20 20 21 21 21 21 22 22 21
12 12 11 12 13 13 14 14 14 15 14 15 16 16 17 17 18 19 20 21 21 21 21 21 21 21 21 21 21 21 21 22 22 21 20 20 21 21 22 22 22 22 23
12 12 13 13 14 15 14 15 16 15 15 16 17 17 18 18 19 20 21 21 22 22 22 21 22 22 22 23 22 22 22 22 21 22 21 21 21 21 22 23 23 23 23
13 14 14 15 16 16 15 16 17 17 17 18 17 18 19 20 20 21 21 22 23 23 22 21 21 22 22 23 22 22 22 22 22 22 23 23 23 23 23 23 24 24 24
14 15 16 16 17 17 17 18 19 19 18 18 19 20 20 21 21 21 21 21 22 22 22 22 22 22 23 23 23 23 23 23 23 23 24 24 23 23 24 24 24 25 25
17 17 18 19 18 18 18 19 19 19 19 19 20 20 20 21 21 21 22 22 23 23 23 24 23 23 23 23 23 23 23 23 23 23 24 24 24 25 25 25 25 26 26
19 19 20 21 19 18 19 19 20 20 20 19 20 21 21 21 22 22 22 23 24 24 24 24 24 24 24 24 23 23 23 23 24 24 24 24 25 25 25 25 26 26 27
19 20 21 22 21 21 20 20 20 20 20 20 21 21 21 21 22 22 22 23 23 23 23 23 23 23 24 24 23 23 23 23 24 24 24 25 25 25 25 25 26 27 27
19 20 20 21 21 22 21 20 20 20 21 21 21 21 21 21 22 23 22 23 23 23 23 22 22 22 23 23 23 23 23 23 24 25 25 26 26 25 26 26 26 27 27
20 19 20 21 22 23 22 22 21 21 22 22 21 21 22 22 22 23 23 22 22 22 22 21 21 20 21 21 21 21 22 23 23 24 25 25 26 26 26 27 27 28 28
21 21 21 22 23 23 22 22 22 22 23 23 23 23 23 23 23 22 22 22 22 20 20 20 20 19 19 20 20 20 21 21 22 23 24 25 25 26 27 27 27 28 28
22 23 22 21 22 22 23 23 23 23 23 24 24 23 23 23 22 22 22 21 20 19 19 19 19 19 18 18 19 20 21 21 21 22 23 24 26 27 28 28 28 27 28
23 22 22 22 23 22 23 23 23 24 24 24 24 23 23 22 21 20 20 19 19 19 19 19 18 18 19 19 19 19 20 21 21 21 22 24 25 27 28 28 29 29 28
23 23 23 23 23 23 23 23 23 23 24 24 24 23 22 21 21 20 19 19 19 19 20 19 19 19 19 19 20 20 20 21 22 22 23 23 24 25 27 29 29 29 29
23 22 23 24 24 24 24 23 22 22 23 22 21 21 20 20 19 19 19 19 19 19 20 19 19 19 19 19 20 20 21 22 22 22 22 23 24 25 25 26 27 28 29
22 23 24 23 23 23 23 23 22 21 22 21 21 20 19 19 19 19 18 18 19 20 19 19 19 20 20 20 21 21 21 22 22 22 23 23 23 24 24 25 26 27 29
23 23 23 22 22 22 21 21 20 20 21 20 20 20 19 19 20 20 19 19 19 19 18 19 20 20 20 20 21 22 22 22 22 23 23 22 22 23 24 25 26 28 29
23 24 24 24 23 22 21 21 21 21 20 20 20 20 20 20 20 20 20 20 20 19 19 19 20 20 21 21 22 23 23 23 23 23 23 23 24 24 25 26 27 28 29
23 23 23 23 22 22 21 21 21 21 20 20 20 20 20 20 20 19 19 19 19 19 19 20 20 21 21 22 23 24 24 24 23 23 23 23 24 24 25 26 27 28 29
22 22 22 23 22 21 21 21 20 20 20 19 20 19 19 19 18 18 18 18 18 19 19 20 20 21 22 23 23 24 25 24 24 24 24 24 25 25 25 26 27 28 29
Wind_Direction
325 323 318 315 318 316 311 305 306 304 302 300 299 300 299 297 296 294 293 293 294 292 289 284 278 275 273 269 266 264 261 259 257 255 253 251 250 249 247 245 244 242 239
322 321 318 314 318 315 312 308 304 302 301 298 296 295 295 295 294 293 292 292 293 291 288 284 280 277 275 272 268 265 263 260 258 256 254 252 249 249 249 247 246 243 240
316 316 313 314 314 314 309 306 302 300 299 297 294 293 292 292 293 292 290 291 291 290 287 283 281 279 276 272 269 266 263 261 259 257 255 253 251 250 250 248 246 244 242
311 315 312 313 314 313 307 304 301 299 297 298 295 293 290 288 288 287 289 290 289 288 286 283 281 279 276 274 272 269 267 263 260 259 258 256 254 253 252 251 249 247 245
309 309 306 306 307 308 304 300 298 298 296 295 294 292 289 287 285 285 285 286 288 287 285 282 280 278 276 275 272 270 270 267 263 259 258 256 255 255 254 253 252 250 247
304 303 301 302 301 302 300 298 295 296 296 293 294 293 292 289 286 285 284 284 285 284 284 283 280 278 277 276 273 272 270 268 265 261 259 257 256 256 255 255 253 252 251
296 298 298 300 299 299 299 296 296 296 294 293 292 293 292 290 289 287 283 282 282 282 281 280 279 276 276 276 274 272 269 266 264 262 260 259 258 257 256 256 255 253 252
296 300 299 299 300 303 304 300 297 296 294 294 294 294 292 290 291 290 287 283 281 279 278 277 278 276 275 275 273 272 269 266 263 262 261 261 259 258 257 256 256 254 251
298 298 298 300 299 300 300 298 295 294 293 294 295 294 292 290 290 289 287 284 282 279 278 277 276 276 275 275 274 271 269 266 264 264 262 260 259 258 257 255 255 254 252
300 299 298 298 295 296 297 297 294 292 292 294 292 293 292 292 292 291 288 284 282 279 277 277 276 275 274 273 272 271 268 266 265 264 263 261 259 257 258 258 256 253 254
299 299 299 298 295 295 294 295 293 291 292 294 294 293 291 291 291 290 288 284 284 282 279 277 275 275 274 273 272 270 268 268 266 264 263 262 261 260 259 258 257 255 254
304 304 301 300 299 295 294 293 292 292 292 293 294 294 292 291 290 289 287 285 285 284 280 277 275 274 274 273 273 270 269 268 266 265 263 262 262 261 261 259 257 255 254
301 301 299 300 298 294 293 294 295 295 293 293 294 293 292 292 291 289 288 286 286 285 282 279 277 275 274 272 270 269 268 269 265 265 264 262 261 262 262 260 257 255 254
298 299 298 299 299 297 295 294 293 294 294 294 294 292 292 292 291 290 288 288 287 287 286 282 277 275 274 273 272 270 268 267 265 264 263 263 262 261 261 261 258 256 255
298 299 299 301 300 300 298 296 293 293 294 295 296 294 292 292 291 290 290 288 287 287 288 285 280 278 274 272 274 273 270 268 266 265 264 263 260 260 261 260 258 256 256
298 299 299 298 300 298 296 296 295 294 294 295 295 294 292 292 291 289 289 288 288 287 285 285 284 282 277 273 275 277 273 269 266 266 265 264 263 263 261 259 257 256 255
299 298 298 298 298 297 296 295 293 293 294 293 293 292 290 290 290 289 289 288 288 286 286 285 283 281 279 277 277 277 275 272 270 269 267 266 265 263 261 259 256 255 255
301 298 299 299 299 298 297 294 292 292 293 292 293 293 291 289 289 288 287 286 286 286 288 286 284 282 279 277 279 277 277 275 274 272 271 269 265 262 260 258 256 256 255
302 299 298 299 298 297 296 292 293 292 291 291 292 291 290 288 287 288 287 285 285 285 287 287 286 284 281 279 279 279 279 278 276 274 273 271 266 262 259 256 256 254 253
303 302 300 301 300 299 296 293 294 293 293 293 292 290 288 287 285 286 285 286 285 283 285 285 284 286 285 282 280 282 281 280 277 274 273 272 268 264 260 257 257 255 252
305 304 304 305 303 300 297 294 292 293 293 292 291 289 288 286 284 285 285 285 284 283 284 284 286 285 283 282 281 283 283 282 280 277 274 273 270 266 263 260 259 257 254
306 306 307 307 304 300 299 296 294 293 291 290 287 286 285 286 287 287 286 288 287 285 285 284 288 287 284 282 282 282 282 282 282 279 275 274 271 267 264 262 261 259 257
306 307 309 308 306 304 301 298 298 295 291 288 287 286 283 285 285 285 287 288 288 287 286 286 288 288 286 284 284 283 282 280 279 278 276 274 272 269 266 263 261 260 258
308 309 311 309 308 306 303 300 299 295 290 289 287 285 284 285 284 282 285 286 287 286 287 288 289 289 287 285 284 284 285 283 279 275 273 273 272 271 270 266 263 262 261
308 310 312 311 309 308 306 304 300 297 295 293 290 286 285 286 286 283 285 286 284 284 286 287 288 288 288 286 284 284 285 285 281 276 273 272 271 270 270 267 265 263 263
314 314 315 315 312 310 309 308 304 301 300 296 293 290 288 287 285 284 287 286 286 287 289 289 289 289 289 288 287 285 285 284 281 278 275 273 271 271 271 270 267 265 265
Height
5888 5887 5887 5887 5886 5886 5886 5885 5885 5884 5883 5882 5882 5881 5880 5879 5878 5877 5876 5875 5874 5873 5873 5872 5871 5871 5870 5869 5869 5869 5868 5868 5868 5868 5868 5868 5868 5868 5868 5869 5869 5869 5869
5887 5887 5886 5886 5886 5885 5885 5884 5883 5883 5882 5881 5880 5879 5878 5877 5876 5875 5874 5873 5872 5871 5870 5870 5869 5868 5868 5867 5866 5866 5866 5866 5866 5865 5865 5866 5866 5866 5866 5866 5866 5867 5867
5886 5885 5885 5885 5884 5883 5883 5882 5881 5881 5880 5879 5878 5877 5876 5875 5873 5872 5871 5870 5870 5869 5868 5867 5866 5865 5865 5864 5863 5863 5863 5863 5862 5862 5863 5863 5863 5863 5863 5864 5864 5864 5864
5884 5884 5884 5883 5882 5881 5881 5880 5879 5879 5878 5877 5875 5874 5873 5872 5870 5869 5868 5867 5866 5866 5865 5864 5863 5863 5862 5861 5860 5860 5859 5859 5859 5859 5859 5859 5860 5860 5860 5860 5861 5861 5862
5883 5883 5882 5881 5880 5879 5879 5878 5877 5876 5875 5874 5873 5871 5870 5868 5867 5866 5865 5864 5863 5862 5862 5861 5860 5859 5858 5858 5857 5856 5855 5855 5855 5855 5855 5855 5856 5856 5856 5857 5857 5858 5859
5881 5881 5879 5879 5878 5877 5876 5875 5874 5873 5872 5871 5869 5868 5867 5865 5864 5863 5862 5861 5860 5859 5858 5857 5856 5855 5855 5854 5853 5852 5852 5851 5851 5851 5851 5851 5851 5852 5852 5853 5854 5855 5855
5879 5878 5877 5876 5875 5874 5873 5872 5871 5870 5869 5867 5866 5865 5863 5862 5860 5859 5858 5857 5856 5855 5854 5853 5852 5851 5850 5849 5849 5848 5847 5847 5847 5847 5847 5847 5847 5848 5849 5849 5850 5851 5851
5876 5875 5874 5873 5872 5871 5870 5869 5868 5867 5866 5864 5863 5861 5860 5858 5857 5855 5854 5853 5852 5851 5850 5849 5848 5847 5846 5845 5844 5843 5843 5843 5843 5843 5843 5843 5843 5844 5844 5845 5845 5846 5847
5874 5872 5871 5870 5869 5868 5867 5866 5864 5863 5862 5860 5859 5857 5856 5854 5852 5851 5849 5848 5847 5846 5845 5844 5843 5842 5841 5840 5839 5838 5837 5837 5838 5838 5838 5839 5839 5839 5840 5840 5841 5842 5842
5870 5869 5868 5867 5866 5865 5863 5862 5861 5859 5857 5856 5855 5853 5852 5850 5848 5846 5844 5842 5841 5841 5840 5839 5837 5836 5836 5835 5834 5833 5832 5833 5833 5833 5834 5834 5834 5834 5835 5835 5836 5837 5837
5866 5865 5864 5863 5862 5860 5859 5858 5856 5854 5853 5852 5850 5848 5847 5845 5843 5841 5839 5837 5836 5835 5834 5833 5832 5831 5830 5829 5828 5828 5828 5828 5828 5828 5828 5829 5829 5830 5830 5830 5831 5831 5832
5864 5862 5861 5859 5858 5857 5855 5854 5852 5851 5849 5847 5845 5843 5842 5840 5838 5836 5834 5832 5831 5829 5828 5826 5826 5825 5824 5824 5823 5823 5822 5822 5822 5823 5823 5823 5824 5824 5825 5825 5825 5826 5827
5861 5860 5858 5856 5854 5853 5851 5850 5848 5846 5844 5842 5840 5838 5836 5834 5832 5830 5829 5827 5825 5823 5822 5821 5820 5819 5818 5817 5817 5817 5816 5817 5817 5817 5817 5817 5818 5818 5819 5819 5819 5820 5821
5857 5855 5853 5851 5850 5848 5846 5845 5843 5841 5839 5837 5835 5833 5831 5829 5827 5825 5823 5821 5819 5818 5816 5815 5814 5813 5812 5811 5811 5811 5810 5810 5811 5811 5811 5811 5812 5812 5813 5814 5814 5814 5815
5853 5852 5849 5847 5845 5843 5841 5840 5838 5836 5834 5832 5829 5826 5825 5823 5821 5819 5817 5815 5813 5812 5810 5809 5808 5807 5806 5805 5805 5805 5805 5804 5804 5805 5805 5806 5806 5806 5806 5807 5808 5808 5809
5848 5847 5845 5843 5841 5838 5836 5834 5832 5830 5828 5826 5824 5822 5819 5817 5815 5813 5811 5809 5807 5806 5804 5803 5802 5801 5800 5800 5800 5799 5799 5798 5798 5798 5799 5799 5799 5800 5800 5800 5801 5802 5803
5844 5843 5840 5837 5835 5833 5831 5829 5827 5824 5822 5820 5818 5816 5813 5811 5809 5807 5805 5803 5802 5800 5798 5798 5797 5796 5796 5795 5795 5794 5793 5792 5792 5792 5792 5792 5793 5793 5793 5793 5794 5795 5795
5839 5837 5834 5832 5830 5827 5825 5823 5821 5818 5815 5813 5812 5809 5807 5805 5803 5801 5799 5797 5796 5795 5794 5793 5792 5791 5790 5790 5789 5788 5788 5787 5786 5785 5785 5785 5785 5786 5786 5786 5787 5787 5788
5834 5832 5829 5826 5824 5821 5819 5816 5814 5811 5808 5807 5805 5803 5801 5799 5797 5795 5793 5792 5791 5790 5789 5788 5787 5786 5785 5785 5784 5783 5782 5781 5780 5779 5779 5778 5778 5777 5778 5778 5779 5780 5781
5829 5826 5823 5820 5817 5814 5812 5810 5807 5805 5803 5801 5799 5797 5794 5793 5791 5789 5788 5787 5786 5785 5783 5782 5781 5781 5780 5779 5778 5777 5776 5775 5774 5773 5772 5771 5770 5770 5770 5770 5770 5772 5773
5824 5821 5818 5814 5811 5808 5806 5803 5801 5799 5796 5794 5792 5790 5788 5786 5785 5784 5783 5782 5780 5779 5778 5777 5776 5775 5774 5773 5772 5771 5770 5769 5768 5766 5765 5764 5763 5762 5762 5762 5762 5763 5764
5819 5815 5812 5808 5804 5801 5799 5796 5793 5792 5790 5788 5786 5784 5782 5781 5780 5778 5776 5776 5775 5773 5771 5770 5770 5769 5768 5767 5766 5765 5764 5763 5761 5759 5758 5757 5756 5755 5754 5754 5755 5755 5756
5813 5809 5806 5803 5799 5795 5792 5790 5787 5785 5784 5782 5780 5778 5777 5776 5775 5773 5772 5771 5769 5767 5766 5765 5764 5763 5762 5761 5760 5759 5757 5757 5755 5753 5751 5750 5749 5748 5748 5747 5747 5748 5748
5807 5804 5800 5797 5794 5790 5787 5785 5782 5780 5778 5776 5774 5772 5771 5770 5768 5767 5766 5765 5764 5762 5761 5760 5758 5757 5756 5755 5753 5751 5750 5748 5747 5746 5745 5743 5742 5741 5740 5740 5740 5739 5740
5802 5798 5795 5791 5788 5785 5782 5779 5777 5774 5772 5770 5768 5767 5765 5764 5762 5761 5760 5759 5758 5757 5755 5754 5752 5751 5749 5748 5746 5744 5742 5740 5739 5738 5737 5736 5734 5733 5732 5731 5731 5731 5731
5796 5793 5790 5786 5783 5781 5777 5774 5771 5769 5766 5765 5762 5760 5759 5758 5757 5755 5754 5753 5752 5751 5749 5747 5746 5744 5742 5740 5738 5736 5734 5732 5731 5730 5729 5728 5727 5725 5724 5723 5723 5722 5722